Location: Zagreb
(45.8000°N, 16.0000°E)
Time: 22:34:01
(UTC+01:00)

Tiros 1 despin weight - Pass Details

Date: 26 January 2020
Orbit: 594 x 642 km, 48.2° (Epoch: 24 February)

Event Time Altitude Azimuth Distance (km) Brightness Sun altitude
Rises 16:00:17 0° 289° (WNW) 2,908 ? 6.9°
Reaches altitude 10° 16:02:38 10° 285° (WNW) 2,007 ? 6.6°
Maximum altitude 16:07:09 55° 208° (SSW) 760 ? 5.9°
Drops below altitude 10° 16:11:42 10° 131° (SE) 2,021 ? 5.3°
Sets 16:14:04 0° 127° (SE) 2,931 ? 4.9°
